Weather in Lisitsa

Russia / Tomsk District     58°42′01″N   85°13′28″E
temp.,
°C
wind,
m/s
gust,
m/s
humid.,
%
clouds,
%
prec.,
mm/h
press.,
hPa
HPBL,
m
13 june, sun
sun1301:00+11wsw2784100 0.0 1013193
04:00+11w3995100 0.1 1012326
07:00+11wsw31098100 1.1 1011487
10:00+13nw3997100 0.9 1010573
13:00+14nnw4991100 1.1 1011710
16:00+13nnw498896 0.1 1012808
19:00+16nnw496549 0.3 10131301
22:00+12nnw38650 0.0 1015207
14 june, mon
mon1401:00+8n310750 0.0 1017191
04:00+6n37765 0.0 1018115
07:00+10n3660100 0.0 1020209
10:00+16n35415 0.0 10201068
13:00+19nnw34353 0.0 10201581
16:00+22nnw35364 0.0 10191939
19:00+22nw35425 0.0 10181802
22:00+16sw226510 0.0 101813
15 june, tue
tue1501:00+13wsw357838 0.0 101770
04:00+12sw3107944 0.0 1016201
07:00+15sw2871100 0.0 1015304
10:00+21wsw475619 0.0 1014629
13:00+27w573790 0.0 10122462
16:00+26wsw484159 0.0 10102268
19:00+19sw1168100 0.0 101130
22:00+18nne1178100 0.0 101112
16 june, wed
wed1601:00+16ssw229031 0.4 101030
04:00+14wsw239542 0.4 100959
07:00+17sw268744 0.5 1009201
10:00+23sw35625 0.0 1009704
13:00+27wsw464615 0.0 10081765
16:00+27wsw574299 0.0 10072291
19:00+17w2496100 4.1 1006123
22:00+17ssw389594 1.2 1007224
17 june, thu
thu1701:00+16wsw2899100 1.4 1007231
04:00+15nw269978 1.4 1007227
07:00+15nnw3794100 1.4 1008392
10:00+17nnw3563100 0.0 1008738
13:00+19nw4546100 0.0 10081255
16:00+22wnw3436100 0.0 10071944
19:00+22nw24405 0.0 10062214
22:00+16wsw11611 0.0 100511